Regional Weather Roundup
Issued by NWS

Home | Current Version | Previous Version | Text Only | Print | Product List | Glossary On
Versions: 1 2 3 4 5 6 7 8 9 10 11 12 13 14 15 16 17 18 19 20 21 22 23 24 25 26 27 28 29 30 31 32 33 34 35 36 37 38 39 40 41 42 43 44 45 46 47 48 49 50
000
ASUS45 KTFX 310019
RWRMT
MONTANA REGIONAL WEATHER ROUNDUP
NATIONAL WEATHER SERVICE GREAT FALLS MT
600 PM MDT SUN AUG 30 2015

NOTE: "FAIR" INDICATES FEW OR NO CLOUDS BELOW 12000 FEET WITH NO
SIGNIFICANT WEATHER AND/OR OBSTRUCTIONS TO VISIBILITY.

MTZ001>007-043-310100-
WEST OF THE DIVIDE

CITY           SKY/WX    TMP DP  RH WIND       PRES   REMARKS
KALISPELL      CLOUDY    61  41  47 W14G24    29.91S
MISSOULA       LGT RAIN  54  48  80 NW20      29.99R
BUTTE          CLOUDY    67  35  30 W16G24    29.90R
MULLAN PASS    FOG       41  40  96 SW6       30.02R VSB 1
DEER LODGE       N/A     63  39  42 N22G29    29.90R
EUREKA           N/A     61  43  51 S14G21    29.88S
HAMILTON         N/A     66  41  39 N9        29.89R
LIBBY            N/A     59  45  58 SE9       29.90S
PLAINS           N/A     60  44  55 W1        29.98R
RONAN            N/A     59  46  61 MISG      30.01R
THOMPSON FALLS   N/A     58  48  69 NW5       30.01S
$$

MTZ008-052>055-310100-
SOUTHWEST MONTANA

CITY           SKY/WX    TMP DP  RH WIND       PRES   REMARKS
BOZEMAN        PTSUNNY   83  24  11 SW16G24   29.76F
DILLON         MOSUNNY   76  21  12 W30G39    29.84R
W YELLOWSTONE  MOSUNNY   68  25  19 SW26G37   30.03R
THREE FORKS      N/A     83  -4   3 CALM      29.78F
TWIN BRIDGES     N/A     75  30  19 SW16      29.84R
$$

MTZ009-010-012-014-046-048-049-054-310100-
EAST SLOPES AND CENTRAL MONTANA

CITY           SKY/WX    TMP DP  RH WIND       PRES   REMARKS
CUT BANK       PTSUNNY   62  41  46 W37G45    29.84R
GREAT FALLS    PTSUNNY   69  37  30 W32G48    29.76R
MALMSTROM AFB  MOSUNNY   75  36  24 W21G39    29.76R
HELENA         CLOUDY    70  40  33 NW28G35   29.82R HAZE
CONRAD           N/A     67  42  40 W26       29.83R
$$

MTZ011-013-016-021-045-047-050-051-310100-
NORTH CENTRAL MONTANA

CITY           SKY/WX    TMP DP  RH WIND       PRES   REMARKS
HAVRE          MOSUNNY   83  36  18 W24G35    29.65F
LEWISTOWN      CLOUDY    65  51  60 S12G21    29.77S
N BAR RANCH    LGT RAIN  55  50  82 W9G20     29.85R
CHINOOK          N/A     81  52  36 E3        29.66F
FORT BENTON      N/A     79  34  19 W20G29    29.71R
$$

MTZ017>020-022>027-061-062-310100-
NORTHEAST MONTANA

CITY           SKY/WX    TMP DP  RH WIND       PRES   REMARKS
GLASGOW        SUNNY     81  48  31 NW7       29.68F
JORDAN           N/A     85  48  27 NW5       29.70S
SIDNEY         MOSUNNY   82  46  28 N5        29.71F
WOLF POINT     MOSUNNY   87  49  26 SW5       29.69F
MALTA            N/A     80  55  42 CALM      29.68S
PLENTYWOOD       N/A     84  48  28 S3        29.70F
POPLAR           N/A     82  50  32 E5        29.70F
SCOBEY           N/A     84  47  27 SW12      29.71F
$$

MTZ028>42-056>058-310100-
SOUTHCENTRAL AND SOUTHEAST MONTANA

CITY           SKY/WX    TMP DP  RH WIND       PRES   REMARKS
BAKER          PTSUNNY   85  51  31 NE8       29.77F
BILLINGS       PTSUNNY   83  47  28 SE13      29.74F
LIVINGSTON     MOSUNNY   83  31  15 SW29G39   29.77S
MILES CITY     PTSUNNY   83  51  33 NE8       29.72F
EKALAKA          N/A     79  49  34 N5        29.80F
FORSYTH          N/A     82  48  30 E9        29.71F
LAUREL           N/A     82  48  30 N3        29.76F
ROUNDUP          N/A     83  47  28 SE3       29.68F
$$

REGIONAL REPORTS...DAKOTAS

CITY           SKY/WX    TMP DP  RH WIND       PRES   REMARKS
WILLISTON      MOSUNNY   83  45  26 NE10      29.71S
MINOT          CLOUDY    80  57  45 W8        29.65S HAZE
BEACH            N/A     81  46  30 NE7       29.76F
CROSBY           N/A     77  46  33 NE5       29.70F
BISMARCK       MOSUNNY   96  57  27 CALM      29.63S HX  95
GRAND FORKS    CLOUDY    84  68  58 S17G23    29.65F
FARGO          MOSUNNY   84  68  58 S18G25    29.71F
BUFFALO SD       N/A     84  54  35 N14       29.69F
RAPID CITY     MOSUNNY   86  59  39 N13       29.73S
$$

REGIONAL REPORTS...WYOMING/IDAHO/WASHINGTON

CITY           SKY/WX    TMP DP  RH WIND       PRES   REMARKS
GILLETTE       CLOUDY    82  50  32 SE7       29.83F
SHERIDAN       PTSUNNY   78  52  40 S8        29.82R THUNDER
BUFFALO WY     CLOUDY    77  50  38 NW5       29.89F
CODY           PTSUNNY   81  37  21 W12G23    29.85S
YELLOWSTONE LA   N/A     64  35  34 VRB7G23   30.14S
IDAHO FALLS    MOSUNNY   78  31  17 SW17G24   29.97S
SALMON         CLOUDY    75  28  17 W12G21    29.85R
BOISE          SUNNY     78  37  22 NW5       29.95F
SPOKANE        PTSUNNY   64  48  56 SW16      29.92R
$$

REGIONAL REPORTS...ALBERTA

CITY           SKY/WX    TMP DP  RH WIND       PRES   REMARKS
EDMONTON       SUNNY     70  39  32 W7        29.50S
CALGARY        PTSUNNY   68  36  30 W16G22    29.60R
LETHBRIDGE     PTSUNNY   66  39  37 W18G32    29.73R
MEDICINE HAT   PTSUNNY   77  39  25 W21G30    29.64R
WATERTON GATE    N/A     54  37  54 SW26G37     N/A
CARDSTON         N/A     61  36  39 SW10G17     N/A
MILK RIVER       N/A     70  37  30 W24G32      N/A
ONEFOUR          N/A     73  30  20 W28G37      N/A
$$

REGIONAL REPORTS...SASKATCHEWAN

CITY           SKY/WX    TMP DP  RH WIND       PRES   REMARKS
SWIFT CURRENT  SUNNY     79  37  22 W20G33    29.64S
REGINA         MOSUNNY   73  61  64 SE7       29.66F
SASKATOON      MOSUNNY   79  45  29 SW13G21   29.56F
CYPRESS HILLS    N/A     70  28  21 W12G18      N/A
VAL MARIE        N/A     77  43  29 W14         N/A
ROCKGLEN         N/A     73  50  43 SW14        N/A
ASSINIBOIA       N/A     75  41  29 NW17G23     N/A
$$


USA.gov is the U.S. government's official web portal to all federal, state and local government web resources and services.